TimeMDT,TemperatureF,Dew PointF,Humidity,Sea Level PressureIn,VisibilityMPH,Wind Direction,Wind SpeedMPH,Gust SpeedMPH,PrecipitationIn,Events,Conditions,WindDirDegrees,DateUTC
12:55 AM,30.0,28.0,92,30.04,10.0,Calm,Calm,-,N/A,,Clear,0,2013-09-27 06:55:00
1:55 AM,30.9,28.0,89,30.03,10.0,Calm,Calm,-,N/A,,Clear,0,2013-09-27 07:55:00
2:55 AM,28.0,27.0,96,30.05,10.0,Calm,Calm,-,N/A,,Clear,0,2013-09-27 08:55:00
3:55 AM,32.0,30.0,92,30.05,10.0,WNW,3.5,-,N/A,,Mostly Cloudy,290,2013-09-27 09:55:00
4:55 AM,30.0,28.0,92,30.04,10.0,NNE,3.5,-,N/A,,Partly Cloudy,20,2013-09-27 10:55:00
5:55 AM,30.0,28.0,92,30.05,10.0,ENE,3.5,-,N/A,,Overcast,60,2013-09-27 11:55:00
6:55 AM,30.9,28.9,92,30.05,10.0,Calm,Calm,-,N/A,,Overcast,0,2013-09-27 12:55:00
7:55 AM,28.9,27.0,92,30.06,6.0,Calm,Calm,-,N/A,,Clear,0,2013-09-27 13:55:00
8:55 AM,33.1,30.0,89,30.06,10.0,Calm,Calm,-,N/A,,Mostly Cloudy,0,2013-09-27 14:55:00
9:55 AM,37.0,33.1,86,30.06,10.0,Calm,Calm,-,N/A,,Overcast,0,2013-09-27 15:55:00
10:55 AM,39.9,33.1,77,30.06,10.0,Calm,Calm,-,N/A,,Overcast,0,2013-09-27 16:55:00
11:55 AM,43.0,36.0,76,30.04,10.0,Calm,Calm,-,N/A,,Overcast,0,2013-09-27 17:55:00
12:55 PM,48.0,37.9,68,30.01,10.0,South,4.6,-,N/A,,Overcast,190,2013-09-27 18:55:00
1:55 PM,50.0,37.9,63,29.98,10.0,SSE,6.9,-,0.00,Rain,Light Rain,160,2013-09-27 19:55:00
2:55 PM,51.1,37.9,61,29.96,10.0,SSE,4.6,-,0.00,,Overcast,160,2013-09-27 20:55:00
3:55 PM,53.1,30.9,43,29.94,10.0,WSW,12.7,25.3,N/A,,Overcast,250,2013-09-27 21:55:00
4:55 PM,51.1,33.1,50,29.96,10.0,WSW,10.4,-,N/A,,Overcast,240,2013-09-27 22:55:00
5:55 PM,48.0,35.1,61,29.98,10.0,SSW,13.8,-,0.00,,Overcast,210,2013-09-27 23:55:00
6:55 PM,48.0,36.0,63,29.97,10.0,South,8.1,-,N/A,,Overcast,190,2013-09-28 00:55:00
7:55 PM,48.0,35.1,61,29.98,10.0,SSW,8.1,-,N/A,,Overcast,210,2013-09-28 01:55:00
8:55 PM,46.9,35.1,63,29.96,10.0,SSW,9.2,-,N/A,,Overcast,210,2013-09-28 02:55:00
9:55 PM,46.9,35.1,63,29.97,10.0,SSW,6.9,-,N/A,,Overcast,200,2013-09-28 03:55:00
10:55 PM,46.9,35.1,63,29.96,10.0,SSW,11.5,-,N/A,,Overcast,210,2013-09-28 04:55:00
11:55 PM,46.9,35.1,63,29.94,10.0,SSW,9.2,-,N/A,,Overcast,210,2013-09-28 05:55:00